[TLELIST]

Mailing List Information:

  • This mailing list is a public mailing list - anyone may join or leave, at any time.

  • This mailing list is announce-only.

International Space Station (ISS) / Hubble Space Telescope (HST) / Chandra X-Ray Observatory Orbital Data via EMAIL

Privacy Policy:

Private list

Archives:

[TLELIST] Current TLEs

Sent October 17th 2021

HST 1 20580U 90037B 21289.56233521 .00001013 00000-0 50211-4 0 9991 2 20580 28.4711 343.6656 0002380 289.2485 186.6629 15.09782962529311 ISS (ZARYA) 1 25544U 98067A 21290.19853984 .00007084 00000-0 13794-3 0 9997 2 25544 51.6433 99.4296 0004200 119.2585 52.9185 15.48722168307509 CXO 1 25867U 99040B 21292.40096598 .00000770 00000-0 00000-0 0 9991 2 25867 52.0635 249.8289 8506706 227.5144 0.2929 0.37804830 10905 ____________________________________________________________________ These 2-Line ...

[TLELIST] Current TLEs

Sent October 16th 2021

HST 1 20580U 90037B 21288.90996813 .00001023 00000-0 50811-4 0 9995 2 20580 28.4712 347.9829 0002367 281.5661 241.5583 15.09781807529482 ISS (ZARYA) 1 25544U 98067A 21289.46556698 .00002306 00000-0 50499-4 0 9993 2 25544 51.6439 103.0751 0004849 123.4318 279.4440 15.48713434307396 CXO 1 25867U 99040B 21289.75776576 .00000847 00000-0 00000-0 0 9991 2 25867 52.0984 249.9157 8500796 227.5080 0.4462 0.37808258 10901 ____________________________________________________________________ These 2-Line ...

[TLELIST] Current TLEs

Sent October 15th 2021

HST 1 20580U 90037B 21287.91839184 .00001063 00000-0 53205-4 0 9996 2 20580 28.4712 354.5448 0002366 269.8897 253.1219 15.09780159529060 ISS (ZARYA) 1 25544U 98067A 21288.26261686 .00003928 00000-0 80291-4 0 9994 2 25544 51.6417 108.9985 0004173 111.1100 60.4854 15.48683083307201 CXO 1 25867U 99040B 21289.75776576 .00000847 00000-0 00000-0 0 9991 2 25867 52.0984 249.9157 8500796 227.5080 0.4462 0.37808258 10901 ____________________________________________________________________ These 2-Line ...

[TLELIST] Current TLEs

Sent October 14th 2021

HST 1 20580U 90037B 21286.50396466 .00001128 00000-0 57123-4 0 9996 2 20580 28.4712 3.9052 0002380 252.9049 127.1648 15.09777915528852 ISS (ZARYA) 1 25544U 98067A 21287.29507740 .00003958 00000-0 80863-4 0 9998 2 25544 51.6412 113.7832 0004266 107.3565 66.4092 15.48674491307052 CXO 1 25867U 99040B 21289.75702130 .00000847 00000-0 00000+0 0 9995 2 25867 52.0987 249.9158 8500816 227.5079 0.3448 0.37807560 22031 ____________________________________________________________________ These 2-Line ...

[TLELIST] Current TLEs

Sent October 13th 2021

HST 1 20580U 90037B 21285.53176105 .00001188 00000-0 60769-4 0 9990 2 20580 28.4712 10.3389 0002401 241.6368 243.8382 15.09776415528709 ISS (ZARYA) 1 25544U 98067A 21286.49738653 .00004500 00000-0 90806-4 0 9990 2 25544 51.6410 117.7292 0004180 103.7706 299.7628 15.48669127306938 CXO 1 25867U 99040B 21287.11411159 .00000899 00000-0 00000-0 0 9999 2 25867 52.1449 250.0183 8496716 227.4952 0.5049 0.37810479 10880 ____________________________________________________________________ These 2-Line ...

[TLELIST] Current TLEs

Sent October 12th 2021

HST 1 20580U 90037B 21284.58692596 .00001088 00000-0 54741-4 0 9993 2 20580 28.4712 16.5915 0002426 230.7549 149.1795 15.09774159528562 ISS (ZARYA) 1 25544U 98067A 21285.32480324 .00003610 00000-0 73709-4 0 9994 2 25544 51.6424 123.5204 0004176 83.0409 258.8473 15.48979895306745 CXO 1 25867U 99040B 21287.11411159 .00000899 00000-0 00000-0 0 9999 2 25867 52.1449 250.0183 8496716 227.4952 0.5049 0.37810479 10880 ____________________________________________________________________ These 2-Line ...

[TLELIST] Current TLEs

Sent October 11th 2021

HST 1 20580U 90037B 21283.67869258 .00001069 00000-0 53588-4 0 9990 2 20580 28.4711 22.6019 0002448 220.3319 253.3998 15.09772477528427 ISS (ZARYA) 1 25544U 98067A 21284.19582807 .00002896 00000-0 60788-4 0 9995 2 25544 51.6421 129.1067 0004172 79.9175 82.2919 15.48968166306575 CXO 1 25867U 99040B 21284.47093394 .00000896 00000-0 00000-0 0 9999 2 25867 52.2249 250.1472 8492021 227.4737 0.6288 0.37806917 10885 ____________________________________________________________________ These 2-Line ...

[TLELIST] Current TLEs

Sent October 10th 2021

HST 1 20580U 90037B 21282.69218524 .00001007 00000-0 49814-4 0 9994 2 20580 28.4709 29.1303 0002481 208.9888 292.2721 15.09770609528276 ISS (ZARYA) 1 25544U 98067A 21283.35935438 .00002710 00000-0 57425-4 0 9993 2 25544 51.6429 133.2436 0004120 76.7315 97.9904 15.48961962306443 CXO 1 25867U 99040B 21284.47093394 .00000896 00000-0 00000-0 0 9999 2 25867 52.2249 250.1472 8492021 227.4737 0.6288 0.37806917 10885 ____________________________________________________________________ These 2-Line ...

[TLELIST] Current TLEs

Sent October 9th 2021

HST 1 20580U 90037B 21282.03512844 .00000967 00000-0 47444-4 0 9995 2 20580 28.4709 33.4785 0002498 201.6762 321.2877 15.09769337528447 ISS (ZARYA) 1 25544U 98067A 21281.73004796 .00003128 00000-0 65029-4 0 9990 2 25544 51.6444 141.3023 0004210 71.7185 11.5978 15.48952913306193 CXO 1 25867U 99040B 21284.47041675 .00000896 00000-0 00000-0 0 9994 2 25867 52.2249 250.1473 8492025 227.4736 0.5588 0.37806866 10873 ____________________________________________________________________ These 2-Line ...

[TLELIST] Current TLEs

Sent October 8th 2021

HST 1 20580U 90037B 21280.77208021 .00000992 00000-0 48916-4 0 9996 2 20580 28.4707 41.8371 0002559 187.8386 296.6382 15.09767402528250 ISS (ZARYA) 1 25544U 98067A 21281.22625978 .00003350 00000-0 69068-4 0 9999 2 25544 51.6434 143.7971 0004082 68.7062 83.5236 15.48951992306111 CXO 1 25867U 99040B 21284.46907424 .00000896 00000-0 00000+0 0 9995 2 25867 52.2245 250.1475 8492040 227.4733 0.3759 0.37806056 22013 ____________________________________________________________________ These 2-Line ...

< < Previous

Index

 

this list's archives:

(archive rss , atom rss/atom )

Administration